Regional Weather Roundup
Issued by NWS

Home | Current Version | Previous Version | Graphics & Text | Print | Product List | Glossary On
Versions: 1 2 3 4 5 6 7 8 9 10 11 12 13 14 15 16 17 18 19 20 21 22 23 24 25 26 27 28 29 30 31 32 33 34 35 36 37 38 39 40 41 42 43 44 45 46 47 48 49 50
000
ASUS43 KLSX 270659
RWRMO

WEATHER SUMMARY FOR MISSOURI
NATIONAL WEATHER SERVICE SPRINGFIELD MO
200 AM CDT WED MAY 27 2015

NOTE: "FAIR" INDICATES FEW OR NO CLOUDS BELOW 12,000 FEET WITH NO
       SIGNIFICANT WEATHER AND/OR OBSTRUCTIONS TO VISIBILITY.
       CURRENT SKY AND/OR WEATHER CONDITIONS ARE NOT AVAILABLE FOR
       CHILLICOTHE AND FARMINGTON.

MOZ001>031-035>038-043-044-053-054-270800-
...NORTHERN AND WESTERN MISSOURI...

CITY           SKY/WX    TMP DP  RH WIND       PRES   REMARKS
KANSAS CTY INT PTCLDY    62  56  80 W5        29.96R
KANSAS C DTWN  CLEAR     66  56  70 SW7       29.95R
LEE`S SUMMIT   PTCLDY    65  61  87 SW6       29.97R
ST JOSEPH      CLEAR     61  58  90 CALM      29.96R
KIRKSVILLE     CLEAR     61  60  97 SW6       29.93S

$$
MOZ066>068-077>081-088>096-101>105-270800-
...SOUTHWEST MISSOURI...

CITY           SKY/WX    TMP DP  RH WIND       PRES   REMARKS
SPRINGFIELD    CLOUDY    68  61  78 S10       29.99F
JOPLIN         CLOUDY    67  65  93 NW3       29.98S

$$
MOZ032>034-039>042-045>050-055>058-069>072-270800-
...CENTRAL MISSOURI...

CITY           SKY/WX    TMP DP  RH WIND       PRES   REMARKS
COLUMBIA       CLEAR     65  61  87 S9        29.96R
JEFFERSON CITY PTCLDY    67  61  81 CALM      29.96R
ROLLA          CLEAR     65  61  87 S13       29.98R
SEDALIA        PTCLDY    68  61  78 SW8       29.96S
OSAGE BEACH    CLOUDY    64  61  88 CALM      29.97S

$$
MOZ051-052-059>065-270800-
...EAST CENTRAL MISSOURI...

CITY           SKY/WX    TMP DP  RH WIND       PRES   REMARKS
ST LOUIS INTL  PTCLDY    71  61  70 SW9       29.98R
SPIRIT OF STL  CLEAR    N/A N/A N/A CALM      29.96S
ST CHARLES     PTCLDY    67  61  81 S6        29.96R

$$
MOZ072>076-082>087-097>100-106>115-270800-
...SOUTH CENTRAL AND SOUTHEAST MISSOURI...

CITY           SKY/WX    TMP DP  RH WIND       PRES   REMARKS
CAPE GIRARDEAU CLEAR     67  64  90 SW5       30.03S
FARMINGTON     CLEAR     64  61  88 S8        30.06R
POPLAR BLUFF   CLEAR     66  63  90 SW3       30.03R
WEST PLAINS    PTCLDY    66  62  87 S9        30.06R

$$


USA.gov is the U.S. government's official web portal to all federal, state and local government web resources and services.